Time,TemperatureF,DewpointF,PressureIn,WindDirection,WindDirectionDegrees,WindSpeedMPH,WindSpeedGustMPH,Humidity,HourlyPrecipIn,Conditions,Clouds,dailyrainin,SoftwareType,DateUTC
2015-09-05 00:04:00,51.0,46.0,-100.00,South,185,3.0,12.0,83,-99.99,,,-99.99,,2015-09-05 06:04:00,
2015-09-05 00:13:00,51.0,46.0,-100.00,South,185,3.0,12.0,83,-99.99,,,-99.99,,2015-09-05 06:13:00,
2015-09-05 00:23:00,51.0,46.0,-100.00,South,185,3.0,12.0,83,-99.99,,,-99.99,,2015-09-05 06:23:00,
2015-09-05 00:33:00,51.0,46.0,-100.00,South,185,3.0,12.0,83,-99.99,,,-99.99,,2015-09-05 06:33:00,
2015-09-05 01:03:00,51.0,45.0,-100.00,SW,232,6.0,13.0,80,-99.99,,,-99.99,,2015-09-05 07:03:00,
2015-09-05 01:12:00,51.0,45.0,-100.00,SW,232,6.0,13.0,80,-99.99,,,-99.99,,2015-09-05 07:12:00,
2015-09-05 01:23:00,51.0,45.0,-100.00,SW,232,6.0,13.0,80,-99.99,,,-99.99,,2015-09-05 07:23:00,
2015-09-05 01:33:00,51.0,45.0,-100.00,SW,232,6.0,13.0,80,-99.99,,,-99.99,,2015-09-05 07:33:00,
2015-09-05 01:53:00,49.0,45.0,-100.00,SE,134,3.0,14.0,86,-99.99,,,-99.99,,2015-09-05 07:53:00,
2015-09-05 02:03:00,49.0,45.0,-100.00,SE,134,3.0,14.0,86,-99.99,,,-99.99,,2015-09-05 08:03:00,
2015-09-05 02:12:00,49.0,45.0,-100.00,SE,134,3.0,14.0,86,-99.99,,,-99.99,,2015-09-05 08:12:00,
2015-09-05 02:23:00,49.0,45.0,-100.00,SE,134,3.0,14.0,86,-99.99,,,-99.99,,2015-09-05 08:23:00,
2015-09-05 02:33:00,49.0,45.0,-100.00,SE,134,3.0,14.0,86,-99.99,,,-99.99,,2015-09-05 08:33:00,
2015-09-05 02:54:00,50.0,43.0,-100.00,SW,235,11.0,21.0,76,-99.99,,,-99.99,,2015-09-05 08:54:00,
2015-09-05 03:03:00,50.0,43.0,-100.00,SW,235,11.0,21.0,76,-99.99,,,-99.99,,2015-09-05 09:03:00,
2015-09-05 03:12:00,50.0,43.0,-100.00,SW,235,11.0,21.0,76,-99.99,,,-99.99,,2015-09-05 09:12:00,
2015-09-05 03:23:00,50.0,43.0,-100.00,SW,235,11.0,21.0,76,-99.99,,,-99.99,,2015-09-05 09:23:00,
2015-09-05 03:33:00,50.0,43.0,-100.00,SW,235,11.0,21.0,76,-99.99,,,-99.99,,2015-09-05 09:33:00,
2015-09-05 03:53:00,51.0,43.0,-100.00,NNW,336,5.0,20.0,73,-99.99,,,-99.99,,2015-09-05 09:53:00,
2015-09-05 04:03:00,51.0,43.0,-100.00,NNW,336,5.0,20.0,73,-99.99,,,-99.99,,2015-09-05 10:03:00,
2015-09-05 04:13:00,51.0,43.0,-100.00,NNW,336,5.0,20.0,73,-99.99,,,-99.99,,2015-09-05 10:13:00,
2015-09-05 04:23:00,51.0,43.0,-100.00,NNW,336,5.0,20.0,73,-99.99,,,-99.99,,2015-09-05 10:23:00,
2015-09-05 04:33:00,51.0,43.0,-100.00,NNW,336,5.0,20.0,73,-99.99,,,-99.99,,2015-09-05 10:33:00,
2015-09-05 04:54:00,50.0,43.0,-100.00,SSW,197,7.0,14.0,77,-99.99,,,-99.99,,2015-09-05 10:54:00,
2015-09-05 05:03:00,50.0,43.0,-100.00,SSW,197,7.0,14.0,77,-99.99,,,-99.99,,2015-09-05 11:03:00,
2015-09-05 05:13:00,50.0,43.0,-100.00,SSW,197,7.0,14.0,77,-99.99,,,-99.99,,2015-09-05 11:13:00,
2015-09-05 05:23:00,50.0,43.0,-100.00,SSW,197,7.0,14.0,77,-99.99,,,-99.99,,2015-09-05 11:23:00,
2015-09-05 05:33:00,50.0,43.0,-100.00,SSW,197,7.0,14.0,77,-99.99,,,-99.99,,2015-09-05 11:33:00,
2015-09-05 05:34:00,49.0,42.0,-100.00,WSW,241,18.0,30.0,78,-99.99,,,-99.99,,2015-09-05 11:34:00,
2015-09-05 05:54:00,49.0,42.0,-100.00,WSW,241,18.0,30.0,78,-99.99,,,-99.99,,2015-09-05 11:54:00,
2015-09-05 06:03:00,49.0,42.0,-100.00,WSW,241,18.0,30.0,78,-99.99,,,-99.99,,2015-09-05 12:03:00,
2015-09-05 06:13:00,49.0,42.0,-100.00,WSW,241,18.0,30.0,78,-99.99,,,-99.99,,2015-09-05 12:13:00,
2015-09-05 06:23:00,49.0,42.0,-100.00,WSW,241,18.0,30.0,78,-99.99,,,-99.99,,2015-09-05 12:23:00,
2015-09-05 06:54:00,51.0,38.0,-100.00,WSW,240,13.0,27.0,62,-99.99,,,-99.99,,2015-09-05 12:54:00,
2015-09-05 07:03:00,51.0,38.0,-100.00,WSW,240,13.0,27.0,62,-99.99,,,-99.99,,2015-09-05 13:03:00,
2015-09-05 07:13:00,51.0,38.0,-100.00,WSW,240,13.0,27.0,62,-99.99,,,-99.99,,2015-09-05 13:13:00,
2015-09-05 07:23:00,51.0,38.0,-100.00,WSW,240,13.0,27.0,62,-99.99,,,-99.99,,2015-09-05 13:23:00,
2015-09-05 07:33:00,51.0,38.0,-100.00,WSW,240,13.0,27.0,62,-99.99,,,-99.99,,2015-09-05 13:33:00,